Tracking 31027 objects as of 18-Jul-2025
HD Live streaming from Space Station
objects crossing your sky now

SL-12 R/B(AUX MOTOR)

Track SL-12 R/B(AUX MOTOR) now!
10-day predictions


NORAD ID: 13609
Int'l Code: 1982-100G
Perigee: 327.0 km
Apogee: 12,628.0 km
Inclination: 52.0 °
Period: 241.6 minutes
Semi major axis: 12848 km
RCS: 0.8417 m2 (medium)
Launch date: October 12, 1982
Source: Commonwealth of Independent States (former USSR) (CIS)
Launch site: TYURATAM MISSILE AND SPACE COMPLEX (TTMTR)

Note: This is a ROCKET BODY
Your satellite tracking list
Your tracking list is empty




NASA's NSSDC Master Catalog

Two Line Element Set (TLE):
1 13609U 82100G   25199.60960221  .00004570  00000-0  90737-3 0  9997
2 13609  52.0332 276.6184 4786931 131.7198 280.5701  5.96106531794625
Source of the keplerian elements: AFSPC